Location: Brodnica
(53.2562°N, 19.4033°E)
Time: 22:41:24
(UTC+01:00)

ISS - Visible Passes

Search period start: 23 January 2019 00:00
Search period end: 02 February 2019 00:00
Orbit: 404 x 410 km, 51.6° (Epoch: 24 January)

Date Brightness Start Highest point End Pass type
(mag) Time Alt. Az. Time Alt. Az. Time Alt. Az.
23 Jan -1.1 18:40:36 10° SSW 18:41:05 12° S 18:41:05 12° S visible
24 Jan -1.6 17:50:16 10° S 17:51:55 13° SE 17:52:03 13° SE visible
24 Jan -0.5 19:24:41 10° SW 19:24:47 11° SW 19:24:47 11° SW visible
25 Jan -2.2 18:33:37 10° SW 18:35:41 26° S 18:35:41 26° S visible
26 Jan -2.2 17:42:42 10° SSW 17:45:21 22° SSE 17:46:30 19° ESE visible
26 Jan -1.1 19:18:14 10° WSW 19:19:14 18° WSW 19:19:14 18° WSW visible
27 Jan -1.6 16:52:06 10° S 16:54:10 16° SE 16:56:16 10° ESE visible
27 Jan -3.2 18:26:59 10° WSW 18:30:00 46° S 18:30:00 46° S visible
28 Jan -2.8 17:35:48 10° SW 17:38:52 35° SSE 17:40:43 19° ESE visible
28 Jan -1.6 19:11:53 10° W 19:13:26 25° WSW 19:13:26 25° WSW visible
29 Jan -3.7 18:20:30 10° WSW 18:23:47 61° S 18:24:07 56° SE visible
30 Jan -3.3 17:29:11 10° WSW 17:32:24 51° SSE 17:34:47 16° E visible
30 Jan -2.1 19:05:30 10° W 19:07:30 33° WSW 19:07:30 33° WSW visible
31 Jan -3.7 18:14:05 10° W 18:17:23 67° S 18:18:09 46° ESE visible
31 Jan -0.4 19:50:34 10° W 19:50:52 12° W 19:50:52 12° W visible
01 Feb -3.5 17:22:40 10° WSW 17:25:57 64° S 17:28:49 13° E visible
01 Feb -2.5 18:59:06 10° W 19:01:32 40° WSW 19:01:32 40° WSW visible
